Shelbyville, IN

1:42 AM EST on December 11, 2019 (GMT -0500)
Shelbyville Municipal

Weather History for KGEZ - October, 2019

Change the Weather History Date:

Wednesday, October 16, 2019

  Actual Average Record
Temperature  
Mean Temperature 54 °F 54 °F  
Max Temperature 62 °F 66 °F 80 °F (1998)
Min Temperature 45 °F 42 °F 32 °F (2010)
Degree Days  
Heating Degree Days 11 11  
Month to date heating degree days 97 148  
Since 1 July heating degree days 100 233  
Cooling Degree Days 0 0  
Month to date cooling degree days 36 11  
Year to date cooling degree days 1330 910  
Growing Degree Days 3 (Base 50)    
Moisture  
Dew Point 39 °F    
Average Humidity 72    
Maximum Humidity 90    
Minimum Humidity 54    
Precipitation  
Precipitation 0.11 in 0.11 in 1.07 in (2006)
Month to date precipitation 0.93 1.68  
Year to date precipitation 33.14 35.13  
Sea Level Pressure  
Sea Level Pressure 29.88 in    
Wind  
Wind Speed 12 mph (WNW)    
Max Wind Speed 22 mph    
Max Gust Speed 33 mph    
Visibility 10 miles    
Events Rain , Thunderstorm    
T = Trace of Precipitation, MM = Missing Value Source: NWS Daily Summary

Daily Weather History Graph

Daily Weather History Graph

Search for Another Location

Airport or City:

Astronomy

Oct. 16, 2019 Rise Set
Actual Time 7:54 AM EDT 7:02 PM EDT
Civil Twilight 7:26 AM EDT 7:29 PM EDT
Nautical Twilight 6:55 AM EDT 8:01 PM EDT
Astronomical Twilight 6:24 AM EDT 8:32 PM EDT
Moon 8:56 PM EDT (10/16) 10:23 AM EDT (10/16)
Length of Visible Light 12h 03m
Length of Day
11h 08m
Waning Gibbous, 93% of the Moon is Illuminated
Oct 16
Waning Gibbous
Oct 21
Last Quarter
Oct 27
New
Nov 4
First Quarter
Nov 12
Full

Hourly Weather History & Observations

Time (EDT) Temp. Windchill Dew Point Humidity Pressure Visibility Wind Dir Wind Speed Gust Speed Precip Events Conditions
12:53 AM 62.1 °F - 59.0 °F 90% 29.75 in 10.0 mi WSW 6.9 mph - 0.01 in   Overcast
1:53 AM 54.0 °F - 44.1 °F 69% 29.78 in 10.0 mi NW 13.8 mph 25.3 mph 0.01 in   Overcast
2:53 AM 53.1 °F - 41.0 °F 64% 29.80 in 10.0 mi NW 16.1 mph 28.8 mph N/A   Overcast
3:26 AM 50.0 °F - 43.0 °F 77% 29.81 in 10.0 mi NW 10.4 mph 20.7 mph 0.00 in Rain , Thunderstorm Light Rain
3:41 AM 50.0 °F - 44.1 °F 80% 29.82 in 3.0 mi WNW 9.2 mph 19.6 mph 0.07 in Rain Heavy Rain
3:53 AM 48.9 °F - 44.1 °F 83% 29.81 in 7.0 mi WNW 6.9 mph - 0.10 in Rain Light Rain
4:53 AM 48.0 °F - 41.0 °F 77% 29.80 in 10.0 mi NW 8.1 mph - 0.00 in   Mostly Cloudy
6:53 AM 45.0 °F 39.3 °F 37.9 °F 76% 29.80 in 10.0 mi WNW 11.5 mph 19.6 mph N/A   Clear
7:49 AM 44.6 °F 37.8 °F 37.4 °F 76% 29.82 in 10.0 mi WNW 15.0 mph 27.6 mph N/A   Mostly Cloudy
7:53 AM 45.0 °F 38.5 °F 37.0 °F 74% 29.83 in 10.0 mi NW 13.8 mph 29.9 mph N/A   Mostly Cloudy
8:53 AM 45.0 °F 38.9 °F 36.0 °F 71% 29.85 in 10.0 mi WNW 12.7 mph 27.6 mph N/A   Overcast
9:53 AM 46.9 °F - 36.0 °F 66% 29.86 in 10.0 mi WNW 13.8 mph 27.6 mph N/A   Overcast
10:53 AM 46.9 °F - 37.0 °F 68% 29.88 in 10.0 mi WNW 13.8 mph - N/A   Overcast
11:27 AM 48.0 °F - 37.0 °F 66% 29.89 in 10.0 mi WNW 11.5 mph 21.9 mph N/A   Overcast
11:53 AM 48.9 °F - 37.0 °F 64% 29.89 in 10.0 mi West 15.0 mph 25.3 mph N/A   Overcast
12:53 PM 50.0 °F - 37.0 °F 61% 29.90 in 10.0 mi NW 12.7 mph 23.0 mph N/A   Overcast
1:53 PM 51.1 °F - 37.0 °F 59% 29.90 in 10.0 mi NW 15.0 mph 23.0 mph N/A   Overcast
2:53 PM 52.0 °F - 37.0 °F 57% 29.91 in 10.0 mi WNW 11.5 mph 25.3 mph N/A   Overcast
3:53 PM 51.1 °F - 36.0 °F 56% 29.92 in 10.0 mi NW 13.8 mph 23.0 mph N/A   Overcast
4:53 PM 52.0 °F - 36.0 °F 54% 29.93 in 10.0 mi NW 13.8 mph 23.0 mph N/A   Overcast
5:53 PM 51.1 °F - 36.0 °F 56% 29.95 in 10.0 mi NW 12.7 mph 26.5 mph N/A   Overcast
6:53 PM 51.1 °F - 35.1 °F 54% 29.96 in 10.0 mi WNW 12.7 mph 19.6 mph N/A   Overcast
7:53 PM 50.0 °F - 36.0 °F 59% 29.98 in 10.0 mi WNW 12.7 mph 21.9 mph N/A   Overcast
8:53 PM 48.9 °F - 36.0 °F 61% 30.00 in 10.0 mi WNW 10.4 mph - N/A   Overcast
9:53 PM 48.0 °F - 36.0 °F 63% 30.01 in 10.0 mi West 8.1 mph - N/A   Overcast
10:53 PM 48.0 °F - 36.0 °F 63% 30.02 in 10.0 mi West 11.5 mph - N/A   Overcast
11:53 PM 46.9 °F - 36.0 °F 66% 30.01 in 10.0 mi West 11.5 mph - N/A   Mostly Cloudy